Regional Weather Roundup
Issued by NWS

Home | Current Version | Previous Version | Graphics & Text | Print | Product List | Glossary On
Versions: 1 2 3 4 5 6 7 8 9 10 11 12 13 14 15 16 17 18 19 20 21 22 23 24 25 26 27 28 29 30 31 32 33 34 35 36 37 38 39 40 41 42 43 44 45 46 47 48 49 50
000
ASUS45 KTFX 060610
RWRMT
MONTANA REGIONAL WEATHER ROUNDUP
NATIONAL WEATHER SERVICE GREAT FALLS MT
1200 AM MDT MON JUL 06 2015

NOTE: "FAIR" INDICATES FEW OR NO CLOUDS BELOW 12000 FEET WITH NO
SIGNIFICANT WEATHER AND/OR OBSTRUCTIONS TO VISIBILITY.

MTZ001>007-043-060700-
WEST OF THE DIVIDE

CITY           SKY/WX    TMP DP  RH WIND       PRES   REMARKS
KALISPELL      CLEAR     48  40  73 NW3       30.18S
MISSOULA       CLOUDY    63  43  48 E14       30.18R
BUTTE          CLOUDY    52  44  74 W7        30.27R
MULLAN PASS    CLEAR     49  40  71 E8        30.21S
DEER LODGE       N/A     52  45  76 NW10      30.30R
EUREKA           N/A     61  39  44 CALM      30.17R
HAMILTON         N/A     63  48  59 N3        30.15R
LIBBY            N/A     57  43  58 S3        30.17S
RONAN            N/A     56  49  77 MISG      30.20R
$$

MTZ008-052>055-060700-
SOUTHWEST MONTANA

CITY           SKY/WX    TMP DP  RH WIND       PRES   REMARKS
BOZEMAN        CLOUDY    56  49  77 SW5       30.23R
DILLON         CLOUDY    53  48  83 NE14      30.22R
W YELLOWSTONE  CLOUDY    50  50 100 NW3       30.26F
THREE FORKS      N/A     57  57 100 N2        30.21R
TWIN BRIDGES     N/A     54  44  68 N15       30.18R
$$

MTZ009-010-012-014-046-048-049-054-060700-
EAST SLOPES AND CENTRAL MONTANA

CITY           SKY/WX    TMP DP  RH WIND       PRES   REMARKS
CUT BANK       CLEAR     48  45  89 W6        30.26F
GREAT FALLS    CLOUDY    50  49  96 W3        30.27R
MALMSTROM AFB  MOCLDY    51  49  95 W6        30.27S
HELENA         CLOUDY    53  47  79 W8        30.26R
$$

MTZ011-013-016-021-045-047-050-051-060700-
NORTH CENTRAL MONTANA

CITY           SKY/WX    TMP DP  RH WIND       PRES   REMARKS
HAVRE          PTCLDY    53  52  96 MISG      30.20S
LEWISTOWN      CLOUDY    52  49  89 CALM      30.26S
CHINOOK          N/A     55  52  88 SW6       30.20R
FORT BENTON      N/A     54  50  87 SW6       30.26R
$$

MTZ017>020-022>027-061-062-060700-
NORTHEAST MONTANA

CITY           SKY/WX    TMP DP  RH WIND       PRES   REMARKS
GLASGOW        LGT RAIN  60  51  72 W8        30.15R
JORDAN           N/A     57  54  89 W10       30.18R
SIDNEY         CLOUDY    63  52  67 W9        30.10R
WOLF POINT     CLOUDY    60  52  74 W5        30.12R
MALTA            N/A     58  52  80 CALM      30.14
PLENTYWOOD       N/A     54  46  76 NW5       30.11R
POPLAR           N/A     59  54  82 N3        30.11S
SCOBEY           N/A     52  44  74 NW2       30.11R
$$

MTZ028>42-056>058-060700-
SOUTHCENTRAL AND SOUTHEAST MONTANA

CITY           SKY/WX    TMP DP  RH WIND       PRES   REMARKS
BAKER          CLOUDY    61  49  64 NW8       30.14R
BILLINGS       CLOUDY    56  47  71 NE10      30.23R
LIVINGSTON     CLOUDY    56  50  80 E7        30.24R
MILES CITY     CLOUDY    58  56  93 W9        30.16R
EKALAKA          N/A     55  51  86 NW1       30.13R
FORSYTH          N/A     57  55  94 W5        30.18S
LAUREL           N/A     56  45  66 N6        30.20R
ROUNDUP          N/A     54  47  77 MISG      30.14R
$$

REGIONAL REPORTS...DAKOTAS

CITY           SKY/WX    TMP DP  RH WIND       PRES   REMARKS
WILLISTON      MOCLDY    61  51  70 N6        30.09R
MINOT          PTCLDY    59  53  80 W12       30.03R
DICKINSON      CLOUDY    56  53  90 NW6       30.06R
BEACH          CLOUDY    59  54  82 NW9       30.12S
CROSBY         MOCLDY    54  54 100 W7        30.09R
BISMARCK       CLOUDY    66  57  72 N10       29.99S HAZE
GRAND FORKS    CLOUDY    61  59  93 NW6       29.90R FOG
FARGO          CLOUDY    67  57  70 N9        29.88S HAZE
BUFFALO SD       N/A     61  56  83 NW10      30.04R
RAPID CITY     CLOUDY    61  58  90 NW14      30.08R FOG
$$

REGIONAL REPORTS...WYOMING/IDAHO/WASHINGTON

CITY           SKY/WX    TMP DP  RH WIND       PRES   REMARKS
GILLETTE       CLOUDY    56  54  93 NW9       30.18R FOG
SHERIDAN       LGT RAIN  56  53  90 W5        30.21S FOG
BUFFALO WY     CLOUDY    53  51  93 NW10      30.24R FOG
CODY           CLOUDY    52  50  93 CALM      30.22F
YELLOWSTONE LA   N/A     49  47  93 CALM      30.36R
IDAHO FALLS    CLOUDY    64  57  78 N12G21    30.09R
SALMON         MOCLDY    63  54  72 CALM      30.03R
BOISE          PTCLDY    73  54  51 SE8       29.97S
SPOKANE        PTCLDY    74  44  34 E15       30.00R
$$

REGIONAL REPORTS...ALBERTA

CITY           SKY/WX    TMP DP  RH WIND       PRES   REMARKS
EDMONTON       CLEAR     50  36  57 S3        30.16S
CALGARY        MOCLDY    52  41  66 S8        30.23F
LETHBRIDGE     PTCLDY    52  48  87 W5        30.23F
MEDICINE HAT   PTCLDY    52  48  87 SW3       30.21R
WATERTON GATE    N/A     41  39  93 SW2         N/A
CARDSTON         N/A     46  46 100 S2          N/A
$$

REGIONAL REPORTS...SASKATCHEWAN

CITY           SKY/WX    TMP DP  RH WIND       PRES   REMARKS
SWIFT CURRENT  CLOUDY    55  46  71 N8        30.16S
REGINA         PTCLDY    50  48  93 NW7       30.11R
SASKATOON      PTCLDY    48  45  87 N5        30.16R
CYPRESS HILLS    N/A     46  43  87 NW1         N/A
VAL MARIE        N/A     55  50  82 NW5         N/A
$$


USA.gov is the U.S. government's official web portal to all federal, state and local government web resources and services.